When you browse on this site, cookies collect data to enhance your experience and personalize the content and advertising you see.
Visit our Privacy Policy to learn more. By continuing to use the site, you agree to this use of cookies and data.
  • In Hungary
  • List of Countries
  • For 7 days
  • Water Temperature
  • Satellite Maps
  • Weather Map
  • News
  • Weather Widgets
  • user-avatar
    Login

    Hourly Weather Szantod

    Today, 19 February, Tuesday

    Time Temperature Precipitation Wind Pressure Humidity
    00:00 +6°C° 0 mm 2 mps 756 mmHg 69%
    01:00 +6°C° 0 mm 2 mps 756 mmHg 71%
    02:00 +6°C° 0 mm 2 mps 756 mmHg 72%
    03:00 +6°C° 0 mm 1 mps 756 mmHg 74%
    04:00 +6°C° 0 mm 1 mps 755 mmHg 75%
    05:00 +5°C° 0 mm 1 mps 755 mmHg 77%
    06:00 +5°C° 0 mm 1 mps 755 mmHg 78%
    07:00 +5°C° 0 mm 1 mps 755 mmHg 79%
    08:00 +6°C° 0 mm 1 mps 755 mmHg 73%
    09:00 +8°C° 0 mm 1 mps 755 mmHg 66%
    10:00 +10°C° 0 mm 1 mps 756 mmHg 60%
    11:00 +10°C° 0 mm 2 mps 755 mmHg 55%
    12:00 +12°C° 0 mm 2 mps 755 mmHg 51%
    13:00 +13°C° 0 mm 2 mps 755 mmHg 46%
    14:00 +13°C° 0 mm 2 mps 755 mmHg 47%
    15:00 +13°C° 0 mm 2 mps 754 mmHg 47%
    16:00 +13°C° 0 mm 2 mps 754 mmHg 47%
    17:00 +12°C° 0 mm 2 mps 754 mmHg 52%
    18:00 +10°C° 0 mm 2 mps 754 mmHg 57%
    19:00 +8°C° 0 mm 2 mps 755 mmHg 62%
    20:00 +8°C° 0 mm 2 mps 755 mmHg 63%
    21:00 +7°C° 0 mm 2 mps 755 mmHg 64%
    22:00 +7°C° 0 mm 2 mps 755 mmHg 65%
    23:00 +7°C° 0 mm 2 mps 755 mmHg 66%

    Tomorrow, 20 February, Wednesday

    Time Temperature Precipitation Wind Pressure Humidity
    00:00 +6°C° 0 mm 2 mps 756 mmHg 67%
    01:00 +6°C° 0 mm 2 mps 756 mmHg 68%
    02:00 +6°C° 0 mm 2 mps 756 mmHg 69%
    03:00 +6°C° 0 mm 2 mps 756 mmHg 70%
    04:00 +6°C° 0 mm 2 mps 756 mmHg 71%
    05:00 +5°C° 0 mm 2 mps 756 mmHg 72%
    06:00 +5°C° 0 mm 2 mps 756 mmHg 74%
    07:00 +5°C° 0 mm 2 mps 757 mmHg 75%
    08:00 +7°C° 0 mm 3 mps 757 mmHg 70%
    09:00 +7°C° 0 mm 4 mps 758 mmHg 65%
    10:00 +10°C° 0 mm 4 mps 758 mmHg 60%
    11:00 +11°C° 0 mm 4 mps 758 mmHg 55%
    12:00 +11°C° 0 mm 4 mps 758 mmHg 51%
    13:00 +12°C° 0 mm 4 mps 758 mmHg 46%
    14:00 +12°C° 0 mm 3 mps 758 mmHg 47%
    15:00 +12°C° 0 mm 3 mps 758 mmHg 49%
    16:00 +12°C° 0 mm 3 mps 758 mmHg 50%
    17:00 +12°C° 0 mm 2 mps 758 mmHg 55%
    18:00 +11°C° 0 mm 1 mps 758 mmHg 60%
    19:00 +9°C° 0 mm 1 mps 759 mmHg 65%
    20:00 +9°C° 0 mm 1 mps 759 mmHg 67%
    21:00 +9°C° 0 mm 1 mps 759 mmHg 69%
    22:00 +8°C° 0 mm 1 mps 760 mmHg 71%
    23:00 +8°C° 0 mm 1 mps 760 mmHg 74%

    Day after tomorrow, 21 February, Thursday

    Time Temperature Precipitation Wind Pressure Humidity
    00:00 +8°C° 0 mm 1 mps 760 mmHg 76%
    01:00 +7°C° 0 mm 1 mps 760 mmHg 79%
    02:00 +7°C° 0 mm 1 mps 760 mmHg 81%
    03:00 +7°C° 0 mm 1 mps 760 mmHg 83%
    04:00 +7°C° 0 mm 1 mps 760 mmHg 85%
    05:00 +6°C° 0 mm 1 mps 760 mmHg 85%
    06:00 +6°C° 0 mm 1 mps 760 mmHg 85%
    07:00 +6°C° 0 mm 1 mps 761 mmHg 85%
    08:00 +7°C° 0 mm 2 mps 761 mmHg 78%
    09:00 +9°C° 0 mm 2 mps 761 mmHg 71%
    10:00 +10°C° 0 mm 2 mps 761 mmHg 64%
    11:00 +11°C° 0 mm 3 mps 761 mmHg 60%
    12:00 +12°C° 0 mm 3 mps 761 mmHg 55%
    13:00 +13°C° 0 mm 4 mps 760 mmHg 51%
    14:00 +13°C° 0 mm 4 mps 760 mmHg 53%
    15:00 +13°C° 0 mm 4 mps 760 mmHg 56%
    16:00 +12°C° 0 mm 3 mps 759 mmHg 59%
    17:00 +11°C° 0 mm 3 mps 759 mmHg 64%
    18:00 +10°C° 0 mm 3 mps 759 mmHg 69%
    19:00 +10°C° 0 mm 3 mps 760 mmHg 74%
    20:00 +9°C° 0 mm 3 mps 760 mmHg 74%
    21:00 +9°C° 0 mm 3 mps 760 mmHg 75%
    22:00 +8°C° 0 mm 3 mps 760 mmHg 75%
    23:00 +8°C° 0 mm 4 mps 760 mmHg 74%

    22 February, Friday

    Time Temperature Precipitation Wind Pressure Humidity
    00:00 +8°C° 0 mm 5 mps 760 mmHg 73%
    01:00 +8°C° 0 mm 7 mps 760 mmHg 71%
    02:00 +8°C° 0.1 mm 7 mps 760 mmHg 72%
    03:00 +8°C° 0.1 mm 6 mps 760 mmHg 72%
    04:00 +8°C° 0.1 mm 6 mps 760 mmHg 73%
    05:00 +8°C° 0 mm 6 mps 760 mmHg 75%
    06:00 +6°C° 0 mm 7 mps 760 mmHg 77%
    07:00 +6°C° 0 mm 7 mps 760 mmHg 80%
    08:00 +7°C° 0 mm 8 mps 761 mmHg 72%
    09:00 +8°C° 0 mm 9 mps 761 mmHg 65%
    10:00 +9°C° 0 mm 10 mps 762 mmHg 58%
    11:00 +11°C° 0 mm 10 mps 762 mmHg 55%
    12:00 +11°C° 0 mm 10 mps 762 mmHg 51%
    13:00 +11°C° 0 mm 10 mps 762 mmHg 48%
    14:00 +11°C° 0 mm 10 mps 763 mmHg 48%
    15:00 +10°C° 0 mm 9 mps 763 mmHg 49%
    16:00 +8°C° 0 mm 9 mps 763 mmHg 49%
    17:00 +7°C° 0 mm 9 mps 764 mmHg 49%
    18:00 +5°C° 0 mm 8 mps 765 mmHg 50%
    19:00 +4°C° 0 mm 8 mps 766 mmHg 50%
    20:00 +3°C° 0 mm 6 mps 767 mmHg 51%
    21:00 +3°C° 0 mm 5 mps 768 mmHg 52%
    22:00 +3°C° 0 mm 4 mps 769 mmHg 53%
    23:00 +1°C° 0 mm 4 mps 770 mmHg 52%

    23 February, Saturday

    Time Temperature Precipitation Wind Pressure Humidity
    00:00 0°C° 0 mm 4 mps 770 mmHg 51%
    01:00 0°C° 0 mm 3 mps 771 mmHg 50%
    02:00 -1°C° 0 mm 3 mps 771 mmHg 50%
    03:00 -1°C° 0 mm 2 mps 771 mmHg 50%
    04:00 -2°C° 0 mm 2 mps 772 mmHg 49%
    05:00 -2°C° 0 mm 2 mps 772 mmHg 48%
    06:00 -2°C° 0 mm 2 mps 772 mmHg 46%
    07:00 -2°C° 0 mm 2 mps 772 mmHg 45%
    08:00 -1°C° 0 mm 2 mps 772 mmHg 39%
    09:00 +1°C° 0 mm 2 mps 772 mmHg 33%
    10:00 +3°C° 0 mm 2 mps 772 mmHg 27%
    11:00 +3°C° 0 mm 2 mps 772 mmHg 27%
    12:00 +5°C° 0 mm 1 mps 771 mmHg 26%
    13:00 +6°C° 0 mm 1 mps 770 mmHg 26%
    14:00 +6°C° 0 mm 1 mps 770 mmHg 26%
    15:00 +7°C° 0 mm 1 mps 769 mmHg 27%
    16:00 +7°C° 0 mm 1 mps 769 mmHg 28%
    17:00 +6°C° 0 mm 1 mps 768 mmHg 32%
    18:00 +5°C° 0 mm 1 mps 768 mmHg 36%
    19:00 +5°C° 0 mm 1 mps 768 mmHg 39%
    20:00 +4°C° 0 mm 1 mps 768 mmHg 41%
    21:00 +4°C° 0 mm 1 mps 768 mmHg 44%
    22:00 +3°C° 0 mm 1 mps 767 mmHg 46%
    23:00 +4°C° 0 mm 1 mps 767 mmHg 46%

    24 February, Sunday

    Time Temperature Precipitation Wind Pressure Humidity
    00:00 +4°C° 0 mm 1 mps 767 mmHg 46%
    01:00 +4°C° 0 mm 1 mps 767 mmHg 46%
    02:00 +4°C° 0 mm 1 mps 767 mmHg 49%
    03:00 +3°C° 0 mm 1 mps 766 mmHg 51%
    04:00 +2°C° 0 mm 2 mps 766 mmHg 54%
    05:00 +2°C° 0 mm 2 mps 766 mmHg 58%
    06:00 +1°C° 0 mm 2 mps 766 mmHg 62%
    07:00 +1°C° 0 mm 2 mps 766 mmHg 66%
    08:00 +3°C° 0 mm 2 mps 767 mmHg 62%
    09:00 +5°C° 0 mm 2 mps 767 mmHg 58%
    10:00 +7°C° 0 mm 2 mps 767 mmHg 54%
    11:00 +8°C° 0 mm 2 mps 767 mmHg 53%
    12:00 +9°C° 0 mm 2 mps 766 mmHg 51%
    13:00 +10°C° 0 mm 2 mps 766 mmHg 49%
    14:00 +12°C° 0 mm 2 mps 766 mmHg 51%
    15:00 +12°C° 0 mm 2 mps 765 mmHg 52%
    16:00 +12°C° 0 mm 2 mps 765 mmHg 54%
    17:00 +10°C° 0 mm 2 mps 764 mmHg 61%
    18:00 +10°C° 0 mm 1 mps 764 mmHg 67%
    19:00 +9°C° 0 mm 1 mps 764 mmHg 73%
    20:00 +8°C° 0 mm 1 mps 763 mmHg 75%
    21:00 +7°C° 0 mm 2 mps 763 mmHg 78%
    22:00 +7°C° 0 mm 2 mps 762 mmHg 80%
    23:00 +7°C° 0 mm 2 mps 762 mmHg 81%
    Show more